Location: Newark
(11.4947°N, 0.1467°E)
Time: 16:33:25
(UTC+00:00)

Envisat - Pass Details

Date: 20 November 2019
Orbit: 764 x 766 km, 98.1° (Epoch: 12 December)

Event Time Altitude Azimuth Distance (km) Brightness Sun altitude
Rises 18:08:48 0° 162° (SSE) 3,223 6.3 -9.4°
Reaches altitude 10° 18:11:06 10° 160° (SSE) 2,297 5.5 -9.9°
Maximum altitude 18:16:08 68° 77° (ENE) 819 2.9 -11.1°
Drops below altitude 10° 18:21:10 10° 355° (N) 2,296 5.3 -12.2°
Sets 18:23:28 0° 353° (N) 3,221 6.1 -12.8°
